GW0702 Weather Reports


Display with metric or nautical units.
time (UTC)temp
F
wind
direction
speed
MPH
gust
MPH
rain 1hr
in
rain 24hr
in
rain mn
in
humidity
%
barometer
mb
20260906204905 82 80 6.0 11.0 0.00 0.22 0.22 69 1016.3
20260906204403 81 117 9.0 15.0 0.00 0.22 0.22 70 1016.4
20260906203902 82 128 7.0 12.0 0.00 0.22 0.22 70 1016.8
20260906203353 82 134 11.0 13.0 0.00 0.22 0.22 70 1016.8
20260906202850 82 137 6.0 9.0 0.00 0.22 0.22 69 1017.0
20260906202350 81 125 6.0 8.0 0.00 0.22 0.22 73 1017.1
20260906201849 80 117 15.0 15.0 0.00 0.22 0.22 72 1017.1
20260906201344 79 104 3.0 10.0 0.00 0.22 0.22 74 1017.3
20260906200839 78 145 6.0 14.0 0.00 0.22 0.22 77 1017.1
20260906200336 78 125 9.0 15.0 0.00 0.22 0.22 78 1017.4
20260906195830 79 116 10.0 14.0 0.00 0.22 0.22 77 1017.6
20260906195327 80 138 7.0 10.0 0.00 0.22 0.22 74 1017.4
20260906194822 79 104 6.0 8.0 0.00 0.22 0.22 76 1017.6
20260906194318 78 135 8.0 11.0 0.00 0.22 0.22 78 1017.7
20260906193813 78 38 3.0 8.0 0.00 0.22 0.22 79 1017.5
20260906193308 74 130 4.0 11.0 0.00 0.22 0.22 91 1017.5
20260906192803 73 133 3.0 11.0 0.00 0.22 0.22 94 1017.7
20260906192258 73 46 5.0 6.0 0.00 0.22 0.22 94 1018.0
20260906191757 73 71 0.0 4.0 0.00 0.22 0.22 94 1018.5
20260906191251 72 68 4.0 9.0 0.00 0.22 0.22 94 1018.5
20260906190746 71 206 2.0 5.0 0.00 0.22 0.22 94 1018.8
20260906190240 71 206 5.0 7.0 0.12 0.22 0.22 96 1018.8
20260906185739 70 204 5.0 9.0 0.76 0.22 0.22 97 1018.6
20260906185238 70 215 4.0 9.0 1.06 0.18 0.18 97 1018.2
20260906184733 71 212 6.0 19.0 0.17 0.03 0.03 95 1018.3
20260906184229 72 150 8.0 17.0 0.02 0.00 0.00 95 1018.7
20260906183724 73 157 4.0 14.0 0.00 0.00 0.00 94 1019.0
20260906183221 73 148 5.0 9.0 0.00 0.00 0.00 93 1018.7
20260906182720 75 147 8.0 19.0 0.00 0.00 0.00 89 1018.6
20260906182216 78 102 5.0 25.0 0.00 0.00 0.00 81 1018.2
20260906181711 80 124 6.0 11.0 0.00 0.00 0.00 77 1017.7
20260906181208 83 136 8.0 13.0 0.00 0.00 0.00 71 1017.7
20260906180708 84 105 2.0 11.0 0.00 0.00 0.00 67 1017.9
20260906180203 84 141 3.0 11.0 0.00 0.00 0.00 66 1017.9
20260906175700 83 141 5.0 13.0 0.00 0.00 0.00 71 1017.9
20260906175156 83 349 2.0 13.0 0.00 0.00 0.00 71 1017.9
20260906174654 82 19 4.0 9.0 0.00 0.00 0.00 76 1018.2
20260906174149 81 53 3.0 14.0 0.00 0.00 0.00 77 1018.3
20260906173645 80 41 2.0 7.0 0.00 0.00 0.00 77 1018.0
20260906173140 78 49 5.0 8.0 0.00 0.00 0.00 82 1018.6
20260906172639 76 19 2.0 15.0 0.00 0.00 0.00 85 1018.9
20260906172135 77 307 6.0 6.0 0.00 0.00 0.00 84 1018.9
20260906171634 76 19 2.0 5.0 0.00 0.00 0.00 84 1018.9
20260906171130 75 16 4.0 9.0 0.00 0.00 0.00 85 1018.5
20260906170626 75 2 8.0 10.0 0.00 0.00 0.00 84 1018.1
20260906170125 77 320 15.0 18.0 0.00 0.00 0.00 81 1018.3
20260906165622 81 14 0.0 3.0 0.00 0.00 0.00 79 1018.6
20260906165117 82 337 2.0 3.0 0.00 0.00 0.00 77 1018.5
20260906164616 84 117 2.0 3.0 0.00 0.00 0.00 76 1018.2
20260906164112 84 212 0.0 4.0 0.00 0.00 0.00 75 1018.0
20260906163607 84 132 2.0 3.0 0.00 0.00 0.00 75 1017.9
20260906163103 84 270 0.0 1.0 0.00 0.00 0.00 75 1018.0
20260906162600 84 142 2.0 5.0 0.00 0.00 0.00 74 1018.0
20260906162054 84 157 0.0 2.0 0.00 0.00 0.00 74 1017.9
20260906161544 83 157 3.0 3.0 0.00 0.00 0.00 76 1017.5
20260906161043 81 139 2.0 3.0 0.00 0.00 0.00 79 1017.4
20260906160542 81 132 2.0 3.0 0.00 0.00 0.00 79 1017.2
20260906160041 81 93 3.0 3.0 0.00 0.00 0.00 78 1017.0
20260906155538 82 135 2.0 3.0 0.00 0.00 0.00 76 1017.1
20260906155034 81 154 1.0 4.0 0.00 0.00 0.00 77 1017.0
20260906154524 80 270 0.0 1.0 0.00 0.00 0.00 79 1017.2
20260906154022 79 352 0.0 0.0 0.00 0.00 0.00 80 1017.1
20260906153521 79 261 0.0 0.0 0.00 0.00 0.00 80 1017.2
20260906153017 79 123 0.0 2.0 0.00 0.00 0.00 80 1017.2
20260906152511 79 188 0.0 2.0 0.00 0.00 0.00 80 1017.0
20260906152010 77 234 0.0 2.0 0.00 0.00 0.00 82 1016.9
20260906151506 77 123 0.0 4.0 0.00 0.00 0.00 83 1016.7
20260906151001 79 120 1.0 2.0 0.00 0.00 0.00 82 1016.9
20260906150456 76 192 0.0 1.0 0.00 0.00 0.00 85 1016.9
20260906145956 76 187 1.0 2.0 0.00 0.00 0.00 85 1017.1
20260906145455 76 199 0.0 2.0 0.00 0.00 0.00 85 1017.0
20260906144956 76 220 0.0 2.0 0.00 0.00 0.00 85 1017.2
20260906144450 77 278 1.0 3.0 0.00 0.00 0.00 84 1017.2
20260906143945 78 346 0.0 3.0 0.00 0.00 0.00 84 1017.0
20260906143441 77 236 0.0 3.0 0.00 0.00 0.00 85 1017.1
20260906142937 75 209 1.0 2.0 0.00 0.00 0.00 88 1017.1
20260906142431 74 328 0.0 2.0 0.00 0.00 0.00 90 1017.1
20260906141926 73 311 2.0 3.0 0.00 0.00 0.00 91 1017.2
20260906141425 73 174 1.0 1.0 0.00 0.00 0.00 91 1017.4
20260906140920 73 352 2.0 3.0 0.00 0.00 0.00 92 1017.5
20260906140414 71 353 1.0 4.0 0.00 0.00 0.00 94 1017.5
20260906135912 71 0 2.0 3.0 0.00 0.00 0.00 94 1017.6
20260906135406 71 353 0.0 2.0 0.00 0.00 0.00 94 1017.7
20260906134902 71 352 2.0 3.0 0.00 0.00 0.00 94 1017.8
20260906134357 72 270 2.0 4.0 0.00 0.00 0.00 94 1017.9
20260906133852 71 90 0.0 0.0 0.00 0.00 0.00 96 1017.9
20260906133348 70 270 0.0 3.0 0.00 0.00 0.00 96 1017.8
20260906132843 69 334 2.0 3.0 0.00 0.00 0.00 96 1017.8
20260906132338 69 292 0.0 3.0 0.00 0.00 0.00 96 1018.1
20260906131834 69 195 0.0 6.0 0.00 0.00 0.00 96 1017.6
20260906131329 69 230 5.0 8.0 0.00 0.00 0.00 96 1017.7
20260906130825 70 199 4.0 6.0 0.00 0.00 0.00 97 1017.9
20260906130324 69 168 5.0 6.0 0.00 0.00 0.00 96 1018.0
20260906125824 69 169 2.0 3.0 0.00 0.00 0.00 96 1018.0
20260906125321 69 206 1.0 6.0 0.00 0.00 0.00 96 1017.9
20260906124816 69 250 3.0 3.0 0.00 0.00 0.00 96 1017.5
20260906124312 69 199 5.0 19.0 0.00 0.00 0.00 97 1017.5
20260906123811 69 259 5.0 12.0 0.00 0.00 0.00 98 1017.9
20260906123306 68 223 7.0 12.0 0.00 0.00 0.00 98 1017.6
20260906122806 68 126 6.0 13.0 0.00 0.00 0.00 98 1016.7
20260906122301 68 118 4.0 27.0 0.00 0.00 0.00 98 1016.0
20260906121757 68 134 4.0 20.0 0.00 0.00 0.00 98 1016.0
20260906121248 67 149 12.0 24.0 0.00 0.00 0.00 98 1016.5
20260906120743 68 133 6.0 15.0 0.00 0.00 0.00 98 1017.0
20260906120240 68 123 7.0 11.0 0.00 0.00 0.00 98 1017.5
20260906115735 67 90 7.0 12.0 0.00 0.00 0.00 98 1017.3
20260906115230 66 75 4.0 6.0 0.00 0.00 0.00 98 1017.4
20260906114729 67 63 3.0 5.0 0.00 0.00 0.00 98 1017.7
20260906114224 66 94 3.0 3.0 0.00 0.00 0.00 98 1017.8
20260906113720 66 107 3.0 5.0 0.00 0.00 0.00 98 1017.8
20260906113218 66 123 4.0 6.0 0.00 0.00 0.00 98 1017.9
20260906112713 66 124 4.0 5.0 0.00 0.00 0.00 98 1018.1
20260906112210 66 128 3.0 3.0 0.00 0.00 0.00 98 1018.0
20260906111709 66 68 2.0 4.0 0.00 0.00 0.00 98 1018.0
20260906111204 66 129 3.0 3.0 0.00 0.00 0.00 98 1018.1
20260906110659 66 121 2.0 2.0 0.00 0.00 0.00 98 1018.3
20260906110154 66 157 0.0 2.0 0.00 0.00 0.00 98 1017.9
20260906105648 66 128 2.0 3.0 0.00 0.00 0.00 98 1017.6
20260906105144 66 140 3.0 3.0 0.00 0.00 0.00 98 1017.6
20260906104643 67 144 2.0 3.0 0.00 0.00 0.00 98 1017.7
20260906104142 66 95 2.0 4.0 0.00 0.00 0.00 98 1017.6
20260906103640 66 114 0.0 3.0 0.00 0.00 0.00 98 1017.5
20260906103136 66 103 1.0 4.0 0.00 0.00 0.00 98 1017.7
20260906102631 67 116 3.0 7.0 0.00 0.00 0.00 98 1017.6
20260906102125 67 120 3.0 4.0 0.00 0.00 0.00 98 1017.4
20260906101620 67 51 3.0 4.0 0.00 0.00 0.00 98 1017.2
20260906101120 66 57 2.0 2.0 0.00 0.00 0.00 98 1017.3
20260906100616 66 45 2.0 2.0 0.00 0.00 0.00 98 1017.4
20260906100111 66 84 2.0 4.0 0.00 0.00 0.00 98 1017.5
20260906095610 66 99 0.0 1.0 0.00 0.00 0.00 97 1017.6
20260906095106 66 90 0.0 2.0 0.00 0.00 0.00 97 1017.4
20260906094605 66 99 0.0 3.0 0.00 0.00 0.00 97 1017.5
20260906094101 66 105 0.0 3.0 0.00 0.00 0.00 97 1017.6
20260906093556 66 95 2.0 2.0 0.00 0.00 0.00 97 1017.6
20260906093051 66 98 2.0 3.0 0.00 0.00 0.00 97 1017.5
20260906092547 66 135 2.0 3.0 0.00 0.00 0.00 97 1017.5
20260906092041 66 90 0.0 0.0 0.00 0.00 0.00 97 1017.6
20260906091537 66 99 0.0 0.0 0.00 0.00 0.00 97 1017.4
20260906091033 66 114 2.0 2.0 0.00 0.00 0.00 96 1017.5
20260906090528 66 106 1.0 1.0 0.00 0.00 0.00 96 1017.4
20260906090023 65 90 0.0 0.0 0.00 0.00 0.00 96 1017.3
20260906085522 66 0 0.0 1.0 0.00 0.00 0.00 96 1017.4
20260906085021 66 73 2.0 3.0 0.00 0.00 0.00 96 1017.4
20260906084516 66 106 0.0 1.0 0.00 0.00 0.00 96 1017.5
20260906084015 66 90 0.0 1.0 0.00 0.00 0.00 96 1017.6
20260906083511 66 120 2.0 2.0 0.00 0.00 0.00 96 1017.5
20260906083010 66 106 1.0 2.0 0.00 0.00 0.00 95 1017.4
20260906082505 66 117 3.0 4.0 0.00 0.00 0.00 95 1017.6
20260906082001 66 119 3.0 3.0 0.00 0.00 0.00 95 1017.4
20260906081456 65 102 2.0 2.0 0.00 0.00 0.00 94 1017.6
20260906080952 66 180 0.0 3.0 0.00 0.00 0.00 94 1017.8
20260906080448 65 151 0.0 1.0 0.00 0.00 0.00 94 1017.5
20260906075943 66 157 1.0 2.0 0.00 0.00 0.00 94 1017.6
20260906075438 67 145 1.0 2.0 0.00 0.00 0.00 94 1017.4
20260906074933 67 139 0.0 2.0 0.00 0.00 0.00 94 1017.5
20260906074433 67 130 3.0 3.0 0.00 0.00 0.00 94 1017.4
20260906073931 67 100 2.0 4.0 0.00 0.00 0.00 94 1017.4
20260906073426 67 121 2.0 3.0 0.00 0.00 0.00 93 1017.3
20260906072923 68 172 0.0 1.0 0.00 0.00 0.00 93 1017.3
20260906072418 68 123 2.0 5.0 0.00 0.00 0.00 93 1017.3
20260906071914 68 124 3.0 3.0 0.00 0.00 0.00 93 1017.2
20260906071409 68 79 2.0 3.0 0.00 0.00 0.00 93 1017.1
20260906070905 68 83 3.0 3.0 0.00 0.00 0.00 93 1017.7
20260906070401 68 115 2.0 4.0 0.00 0.00 0.00 92 1017.5
20260906065856 68 110 4.0 4.0 0.00 0.00 0.00 92 1017.3
20260906065350 68 108 2.0 5.0 0.00 0.00 0.00 92 1017.3
20260906064846 68 112 2.0 4.0 0.00 0.00 0.00 92 1017.5
20260906064343 68 124 5.0 6.0 0.00 0.00 0.00 91 1017.4
20260906063842 68 125 5.0 6.0 0.00 0.00 0.00 91 1017.6
20260906063338 68 124 5.0 5.0 0.00 0.00 0.00 91 1017.7
20260906062833 67 123 3.0 6.0 0.00 0.00 0.00 91 1017.6
20260906062332 67 82 3.0 4.0 0.00 0.00 0.00 91 1017.7
20260906061828 67 112 3.0 5.0 0.00 0.00 0.00 90 1017.8
20260906061324 67 132 5.0 5.0 0.00 0.00 0.00 90 1017.9
20260906060818 67 130 4.0 4.0 0.00 0.00 0.00 90 1018.1
20260906060317 67 171 2.0 4.0 0.00 0.00 0.00 90 1017.9
20260906055812 67 157 1.0 3.0 0.00 0.00 0.00 89 1017.9
20260906055307 68 132 2.0 2.0 0.00 0.00 0.00 89 1017.9
20260906054802 68 199 2.0 3.0 0.00 0.00 0.00 88 1017.9
20260906054258 69 95 2.0 3.0 0.00 0.00 0.00 88 1018.1
20260906053754 69 121 3.0 3.0 0.00 0.00 0.00 88 1018.0
20260906053250 69 133 3.0 3.0 0.00 0.00 0.00 89 1017.6
20260906052744 68 103 2.0 3.0 0.00 0.00 0.00 89 1017.6
20260906052240 68 90 2.0 2.0 0.00 0.00 0.00 89 1017.8
20260906051738 68 96 2.0 3.0 0.00 0.00 0.00 88 1017.8
20260906051237 68 90 0.0 2.0 0.00 0.00 0.00 87 1017.8
20260906050732 68 79 2.0 3.0 0.00 0.00 0.00 87 1017.8
20260906050227 68 90 0.0 1.0 0.00 0.00 0.00 86 1017.8
20260906045726 68 157 0.0 2.0 0.00 0.00 0.00 85 1017.8
20260906045221 69 154 0.0 2.0 0.00 0.00 0.00 86 1017.8
20260906044717 69 84 0.0 3.0 0.00 0.00 0.00 85 1018.0
20260906044212 69 131 0.0 2.0 0.00 0.00 0.00 84 1018.0
20260906043708 69 90 0.0 2.0 0.00 0.00 0.00 84 1017.8
20260906043204 70 109 1.0 2.0 0.00 0.00 0.00 84 1017.8
20260906042703 69 114 3.0 3.0 0.00 0.00 0.00 84 1017.7
20260906042157 69 97 1.0 2.0 0.00 0.00 0.00 84 1017.7
20260906041653 69 90 1.0 2.0 0.00 0.00 0.00 84 1017.5
20260906041148 69 90 1.0 3.0 0.00 0.00 0.00 83 1017.7
20260906040643 70 140 0.0 2.0 0.00 0.00 0.00 82 1017.6
20260906040139 70 121 2.0 3.0 0.00 0.00 0.00 82 1017.4
20260906035633 70 114 0.0 2.0 0.00 0.00 0.00 81 1017.6
20260906035129 71 79 2.0 2.0 0.00 0.00 0.00 81 1017.3
20260906034624 71 126 3.0 5.0 0.00 0.00 0.00 81 1017.4
20260906034118 71 140 2.0 2.0 0.00 0.00 0.00 81 1017.8
20260906033614 71 172 2.0 3.0 0.00 0.00 0.00 81 1017.6
20260906033109 71 108 3.0 3.0 0.00 0.00 0.00 81 1017.5
20260906032606 71 135 0.0 2.0 0.00 0.00 0.00 80 1017.5
20260906032105 71 119 3.0 5.0 0.00 0.00 0.00 79 1017.4
20260906031601 71 131 3.0 5.0 0.00 0.00 0.00 79 1017.5
20260906031056 71 90 1.0 1.0 0.00 0.00 0.00 78 1017.6
20260906030555 71 133 3.0 4.0 0.00 0.00 0.00 78 1017.3
20260906030055 72 77 3.0 3.0 0.00 0.00 0.00 77 1017.3
20260906025550 72 135 2.0 4.0 0.00 0.00 0.00 76 1017.1
20260906025048 73 114 5.0 5.0 0.00 0.00 0.00 76 1017.3
20260906024544 73 119 2.0 6.0 0.00 0.00 0.00 75 1017.3
20260906024043 73 144 2.0 5.0 0.00 0.00 0.00 74 1017.3
20260906023540 73 119 2.0 6.0 0.00 0.00 0.00 74 1017.4
20260906023034 73 7 2.0 5.0 0.00 0.00 0.00 74 1017.3
20260906022530 73 180 1.0 3.0 0.00 0.00 0.00 74 1017.2
20260906022025 73 180 0.0 0.0 0.00 0.00 0.00 74 1017.1
20260906021520 73 203 0.0 2.0 0.00 0.00 0.00 74 1016.9
20260906021014 73 151 0.0 2.0 0.00 0.00 0.00 73 1016.9
20260906020514 73 102 2.0 3.0 0.00 0.00 0.00 73 1016.5
20260906020013 74 114 2.0 6.0 0.00 0.00 0.00 72 1016.7
20260906015507 74 114 1.0 5.0 0.00 0.00 0.00 71 1016.5
20260906015007 75 119 2.0 4.0 0.00 0.00 0.00 71 1016.4
20260906014501 75 111 6.0 7.0 0.00 0.00 0.00 70 1016.3
20260906013957 76 117 4.0 5.0 0.00 0.00 0.00 69 1016.4
20260906013453 76 133 3.0 5.0 0.00 0.00 0.00 69 1016.5
20260906012948 76 143 2.0 9.0 0.00 0.00 0.00 68 1016.3
20260906012443 77 137 5.0 8.0 0.00 0.00 0.00 68 1016.4
20260906011942 78 123 3.0 10.0 0.00 0.00 0.00 67 1016.2
20260906011438 78 146 3.0 9.0 0.00 0.00 0.00 67 1016.0
20260906010933 79 135 5.0 8.0 0.00 0.00 0.00 65 1016.1
20260906010428 80 138 5.0 15.0 0.00 0.00 0.00 63 1016.0
20260906005924 81 141 7.0 12.0 0.00 0.00 0.00 59 1016.0
20260906005424 82 107 7.0 13.0 0.00 0.00 0.00 56 1016.1
20260906004922 83 120 3.0 7.0 0.00 0.00 0.00 56 1015.9
20260906004417 84 135 2.0 3.0 0.00 0.00 0.00 54 1015.6
20260906003912 84 103 0.0 4.0 0.00 0.00 0.00 55 1015.7
20260906003408 85 180 0.0 2.0 0.00 0.00 0.00 54 1015.6
20260906002903 85 209 0.0 2.0 0.00 0.00 0.00 53 1015.5
20260906002402 85 123 2.0 3.0 0.00 0.00 0.00 54 1015.8
20260906001858 85 135 2.0 4.0 0.00 0.00 0.00 53 1015.8
20260906001353 85 116 3.0 5.0 0.00 0.00 0.00 53 1015.7
20260906000848 85 126 0.0 5.0 0.00 0.00 0.00 53 1015.8
20260906000348 85 141 3.0 7.0 0.00 0.00 0.00 53 1015.9
20260905235843 86 132 4.0 8.0 0.00 0.00 0.00 52 1015.8
20260905235337 86 141 3.0 9.0 0.00 0.00 0.00 52 1016.0
20260905234833 86 123 5.0 9.0 0.00 0.00 0.00 54 1016.1
20260905234328 87 135 4.0 7.0 0.00 0.00 0.00 56 1016.2
20260905233823 87 134 4.0 11.0 0.00 0.00 0.00 56 1016.2
20260905233318 86 141 6.0 17.0 0.00 0.00 0.00 58 1016.4
20260905232817 87 115 7.0 16.0 0.00 0.00 0.00 57 1016.7
20260905232313 86 120 14.0 14.0 0.00 0.00 0.00 60 1016.4
20260905231809 85 142 3.0 11.0 0.00 0.00 0.00 63 1016.4
20260905231304 85 140 10.0 14.0 0.00 0.00 0.00 63 1016.9
20260905230800 86 153 9.0 14.0 0.00 0.00 0.00 63 1016.7
20260905230258 88 129 9.0 18.0 0.00 0.00 0.00 58 1016.7
20260905225757 90 139 10.0 17.0 0.00 0.00 0.00 55 1016.4
20260905225252 93 117 11.0 11.0 0.00 0.00 0.00 48 1016.5
20260905224752 92 137 6.0 13.0 0.00 0.00 0.00 49 1016.5
20260905224248 93 158 7.0 11.0 0.00 0.00 0.00 47 1016.2
20260905223743 94 134 9.0 12.0 0.00 0.00 0.00 46 1016.3
20260905223240 95 131 7.0 8.0 0.00 0.00 0.00 46 1016.0
20260905222736 94 126 7.0 12.0 0.00 0.00 0.00 46 1016.0
20260905222234 94 120 5.0 8.0 0.00 0.00 0.00 46 1015.7
20260905221730 94 131 3.0 10.0 0.00 0.00 0.00 45 1015.3
20260905221227 93 120 7.0 11.0 0.00 0.00 0.00 46 1015.2
20260905220723 95 106 3.0 13.0 0.00 0.00 0.00 45 1015.3
20260905220219 95 125 13.0 13.0 0.00 0.00 0.00 44 1015.4
20260905215718 95 180 2.0 8.0 0.00 0.00 0.00 44 1015.1
20260905215214 96 166 6.0 6.0 0.00 0.00 0.00 42 1015.3
20260905214710 97 210 5.0 6.0 0.00 0.00 0.00 41 1015.3
20260905214205 95 139 2.0 9.0 0.00 0.00 0.00 44 1015.5
20260905213700 96 126 4.0 5.0 0.00 0.00 0.00 43 1015.7
20260905213156 94 152 2.0 7.0 0.00 0.00 0.00 44 1016.0
20260905212651 94 144 4.0 7.0 0.00 0.00 0.00 45 1015.8
20260905212150 93 140 3.0 9.0 0.00 0.00 0.00 45 1016.4
20260905211644 94 116 7.0 9.0 0.00 0.00 0.00 44 1016.1
20260905211140 94 125 2.0 11.0 0.00 0.00 0.00 44 1016.1
20260905210637 95 135 9.0 11.0 0.00 0.00 0.00 43 1016.2
20260905210137 95 0 1.0 5.0 0.00 0.00 0.00 43 1016.1
20260905205636 94 159 6.0 6.0 0.00 0.00 0.00 43 1016.0
20260905205130 96 198 2.0 5.0 0.00 0.00 0.00 42 1016.1